Waarnemingen

Advertentie
Mijn weer
St. Athan, Groot Brittannië (3716): temperatuur & dauwpunt: 18.01.2018 11:00:00 - 24.01.2018 11:00:00 (GMT)St. Athan, Groot Brittannië (3716): windsnelheid & windstoten: 18.01.2018 11:00:00 - 24.01.2018 11:00:00 (GMT)St. Athan, Groot Brittannië (3716): windrichting: 18.01.2018 11:00:00 - 24.01.2018 11:00:00 (GMT)St. Athan, Groot Brittannië (3716): luchtdruk: 18.01.2018 11:00:00 - 24.01.2018 11:00:00 (GMT)St. Athan, Groot Brittannië (3716): zicht: 18.01.2018 11:00:00 - 24.01.2018 11:00:00 (GMT)St. Athan, Groot Brittannië (3716): Zonneschijnduur: 18.01.2018 11:00:00 - 24.01.2018 11:00:00 (GMT)St. Athan, Groot Brittannië (3716): neerslag: 18.01.2018 11:00:00 - 24.01.2018 11:00:00 (GMT)
Datum & Tijd tt [°C] td [°C] ff [km/u] ff [kn] fx [km/u] fx [kn] dd ppp [hPa] vv [km] sd [min] rr [mm]
24.01.2018 11:00:00 8,0 6,7 37 20 61 33 WZW 1003,9 8 0 0,8
24.01.2018 10:00:00 7,8 6,8 34 18 50 27 W 1003,4 5 0 0,8
24.01.2018 09:00:00 7,7 7,1 26 14 65 35 W 1003,2 7 0 4,4
24.01.2018 08:00:00 11,7 10,1 44 24 68 37 ZW 1000,8 7 0 0,2
24.01.2018 07:00:00 12,3 10,2 37 20 52 28 ZW 1001,9 23 0 0,0
24.01.2018 06:00:00 12,2 9,9 37 20 52 28 ZW 1002,9 13 0 0,0
24.01.2018 05:00:00 12,0 9,6 28 15 50 27 ZZW 1004,5 35 0 0,0
24.01.2018 04:00:00 12,0 9,5 34 18 54 29 ZW 1005,8 26 0 0,0
24.01.2018 03:00:00 11,3 8,9 21 11 - - ZZW 1007,2 18 0 0,0
24.01.2018 02:00:00 11,0 8,3 15 8 - - Z 1008,6 18 0 0,0
24.01.2018 01:00:00 10,4 7,8 18 10 - - ZZW 1009,3 12 0 0,0
24.01.2018 00:00:00 10,1 7,4 18 10 - - ZZW 1011,0 11 - 0,0
23.01.2018 23:00:00 10,2 7,7 21 11 - - ZZW 1012,0 10 0 0,0
23.01.2018 22:00:00 10,1 7,7 15 8 - - ZW 1012,7 9 0 0,0
23.01.2018 21:00:00 10,5 8,3 22 12 - - ZW 1013,0 8 0 0,0
23.01.2018 20:00:00 10,2 8,5 24 13 - - WZW 1013,2 8 0 0,0
23.01.2018 19:00:00 10,3 8,7 26 14 - - WZW 1013,4 9 0 0,0
23.01.2018 18:00:00 9,5 8,3 24 13 - - WZW 1013,5 6 0 0,0
23.01.2018 17:00:00 10,2 8,8 29 16 - - WZW 1012,9 8 0 0,0
23.01.2018 16:00:00 10,6 9,7 26 14 - - WZW 1012,7 9 0 0,0
23.01.2018 15:00:00 11,0 10,4 29 16 - - WZW 1011,6 5 0 0,2
23.01.2018 14:00:00 11,3 10,4 18 10 - - ZW 1011,6 11 0 0,0
23.01.2018 13:00:00 11,6 10,1 26 14 - - ZW 1012,1 15 0 0,0
23.01.2018 12:00:00 10,9 9,6 29 16 48 26 WZW 1012,7 14 0 0,2
23.01.2018 11:00:00 10,9 9,9 29 16 48 26 WZW 1013,2 20 0 0,0
23.01.2018 10:00:00 10,8 10,2 34 18 55 30 WZW 1013,1 15 0 0,4
23.01.2018 09:00:00 10,4 9,2 18 10 - - WZW 1013,0 8 0 0,0
23.01.2018 08:00:00 11,3 10,1 24 13 - - ZW 1012,9 17 0 0,2
23.01.2018 07:00:00 10,4 9,8 16 9 - - WZW 1013,1 19 0 0,0
23.01.2018 06:00:00 9,8 9,4 13 7 - - ZZW 1013,4 35 0 0,6
23.01.2018 05:00:00 9,0 8,3 11 6 - - Z 1014,0 21 0 0,4
23.01.2018 04:00:00 8,1 7,4 9 5 - - ZZO 1014,6 1,9 0 2,6
23.01.2018 03:00:00 8,4 6,4 11 6 - - OZO 1015,7 26 0 0,0
23.01.2018 02:00:00 9,0 6,0 8 4 - - Z - 10 - 0,0
23.01.2018 01:00:00 9,0 6,3 16 9 - - ZZW 1017,4 35 0 0,0
23.01.2018 00:00:00 8,9 6,7 15 8 - - ZW 1018,0 17 - 0,0
22.01.2018 23:00:00 8,3 7,1 15 8 - - WZW 1018,1 12 0 0,0
22.01.2018 22:00:00 8,2 6,9 16 9 - - WZW 1018,4 13 0 0,0
22.01.2018 21:00:00 8,3 6,7 22 12 - - WZW 1018,2 14 0 0,0
22.01.2018 20:00:00 8,5 6,0 15 8 - - W 1018,3 19 0 0,0
22.01.2018 19:00:00 8,6 5,5 15 8 - - W 1018,1 19 0 0,0
22.01.2018 18:00:00 8,1 6,0 15 8 - - WZW 1018,0 12 0 0,0
22.01.2018 17:00:00 7,7 5,4 8 4 - - W 1017,7 13 0 0,0
22.01.2018 16:00:00 8,3 5,4 13 7 - - W 1017,3 16 0 0,0
22.01.2018 15:00:00 8,7 5,8 18 10 - - W 1016,5 14 0 0,0
22.01.2018 14:00:00 8,7 5,3 22 12 - - W 1015,8 18 0 0,0
22.01.2018 13:00:00 9,0 6,0 22 12 - - W 1015,2 13 0 0,0
22.01.2018 12:00:00 8,9 6,4 21 11 - - WNW 1014,5 10 0 0,0
22.01.2018 11:00:00 8,6 6,3 22 12 - - WNW 1014,0 13 0 0,0
22.01.2018 10:00:00 8,2 6,6 18 10 - - WNW 1012,6 9 0 0,0
22.01.2018 09:00:00 7,9 6,7 15 8 - - W 1011,6 7 0 0,0
22.01.2018 08:00:00 7,7 6,9 13 7 - - WNW 1010,1 7 0 0,0
22.01.2018 07:00:00 7,8 7,1 9 5 - - WNW 1009,0 5 0 0,0
22.01.2018 06:00:00 8,1 7,4 11 6 - - WNW 1008,6 5 0 0,0
22.01.2018 05:00:00 8,5 7,5 16 9 - - WNW 1007,4 7 0 0,2
22.01.2018 04:00:00 8,7 7,8 21 11 - - W 1007,1 6 0 0,0
22.01.2018 03:00:00 8,3 7,5 16 9 - - W 1007,0 6 0 0,0
22.01.2018 02:00:00 8,4 7,8 16 9 - - W 1007,8 5 0 0,0
22.01.2018 01:00:00 8,6 7,8 15 8 - - W 1008,2 4,9 0 0,0
22.01.2018 00:00:00 9,1 8,0 22 12 - - W 1008,2 6 - 0,0
21.01.2018 23:00:00 9,0 8,1 24 13 48 26 W 1008,0 5 0 0,0
21.01.2018 22:00:00 9,5 8,7 34 18 55 30 W 1007,6 6 0 0,0
21.01.2018 21:00:00 9,6 9,4 35 19 57 31 W 1007,0 6 0 0,0
21.01.2018 20:00:00 10,1 9,9 39 21 61 33 W 1006,7 1,2 0 0,2
21.01.2018 19:00:00 10,1 10,0 41 22 63 34 W 1006,3 1,7 0 0,0
21.01.2018 18:00:00 9,7 9,6 35 19 55 30 W 1006,4 1,1 0 1,0
21.01.2018 17:00:00 9,8 9,7 35 19 54 29 W 1006,8 3,1 0 4,0
21.01.2018 16:00:00 9,7 9,5 35 19 52 28 W 1006,4 2,4 0 3,2
21.01.2018 15:00:00 9,7 9,5 28 15 - - W 1006,9 1,8 0 3,4
21.01.2018 14:00:00 6,2 6,1 2 1 - - ONO 1007,8 1,8 0 4,0
21.01.2018 13:00:00 5,5 5,3 5 3 - - NO 1008,6 1,8 0 3,2
21.01.2018 12:00:00 5,4 5,2 9 5 - - NO 1009,4 1,8 0 2,6
21.01.2018 11:00:00 4,8 4,6 15 8 - - O 1010,0 2,5 0 1,8
21.01.2018 10:00:00 4,3 4,1 16 9 - - O 1010,3 3,3 0 2,6
21.01.2018 09:00:00 3,9 3,6 22 12 - - OZO 1011,1 3,4 0 3,8
21.01.2018 08:00:00 3,8 3,6 21 11 - - OZO 1011,3 1,7 0 1,6
21.01.2018 07:00:00 3,5 3,2 15 8 - - OZO 1012,2 1,0 0 1,4
21.01.2018 06:00:00 3,1 2,6 16 9 - - OZO 1012,8 1,5 0 0,2
21.01.2018 05:00:00 3,2 2,3 15 8 - - OZO 1013,3 5 0 0,0
21.01.2018 04:00:00 3,1 2,2 11 6 - - ONO 1014,1 5 0 0,0
21.01.2018 03:00:00 2,9 2,1 9 5 - - O 1013,5 5 0 0,0
21.01.2018 02:00:00 2,8 1,9 11 6 - - O 1013,4 7 0 0,0
21.01.2018 01:00:00 2,1 1,4 11 6 - - O 1013,2 5 0 0,0
21.01.2018 00:00:00 2,0 1,1 8 4 - - ONO 1012,3 7 - 0,0
20.01.2018 23:00:00 1,8 0,9 2 1 - - ZZW 1011,8 7 0 0,0
20.01.2018 22:00:00 1,9 0,9 11 6 - - ONO 1010,4 10 0 0,0
20.01.2018 21:00:00 3,6 2,3 11 6 - - NNO 1009,3 50 0 0,0
20.01.2018 20:00:00 4,0 2,3 9 5 - - NO 1007,3 50 0 0,0
20.01.2018 19:00:00 7,4 5,2 18 10 - - WNW 1005,1 18 0 0,0
20.01.2018 18:00:00 7,7 5,0 24 13 54 29 NW 1003,2 35 0 0,0
20.01.2018 17:00:00 8,6 6,7 35 19 48 26 WNW 1000,7 10 0 0,0
20.01.2018 16:00:00 9,3 7,4 34 18 48 26 W 999,3 11 0 0,0
20.01.2018 15:00:00 9,2 8,7 26 14 - - W 997,9 7 0 0,2
20.01.2018 14:00:00 8,8 8,7 22 12 - - W 997,1 8 0 2,6
20.01.2018 13:00:00 6,3 6,0 4 2 - - Z 997,2 2,3 0 1,4
20.01.2018 12:00:00 5,9 5,6 4 2 - - ZZO 998,1 4,6 0 0,0
20.01.2018 11:00:00 5,3 5,0 5 3 - - O 999,0 4,2 0 0,2
20.01.2018 10:00:00 5,3 5,0 9 5 - - OZO 999,0 4,0 0 0,2
20.01.2018 09:00:00 5,0 4,8 9 5 - - O 999,1 3,5 0 0,0
20.01.2018 08:00:00 5,0 4,7 13 7 - - O 998,8 3,7 0 0,2
20.01.2018 07:00:00 4,4 4,1 13 7 - - O 999,4 3,6 0 0,4
20.01.2018 06:00:00 4,2 3,8 11 6 - - O 1000,0 3,2 0 0,4
20.01.2018 05:00:00 4,4 3,8 13 7 - - OZO 1001,1 7 0 0,2
20.01.2018 04:00:00 4,5 3,6 11 6 - - OZO 1002,7 23 0 0,2
20.01.2018 03:00:00 4,7 3,7 5 3 - - Z 1004,3 11 0 0,2
20.01.2018 02:00:00 5,0 3,5 13 7 - - WZW 1005,9 16 0 0,2
20.01.2018 01:00:00 5,5 3,0 18 10 - - W 1007,3 19 0 0,0
20.01.2018 00:00:00 6,5 2,8 21 11 - - WZW 1008,2 18 - 0,0
19.01.2018 23:00:00 6,3 2,2 21 11 - - W 1008,8 19 0 0,0
19.01.2018 22:00:00 6,4 2,3 24 13 - - W 1009,2 19 0 0,0
19.01.2018 21:00:00 6,2 1,6 22 12 - - W 1009,7 17 0 0,0
19.01.2018 20:00:00 6,1 1,4 26 14 - - W 1009,9 18 0 0,0
19.01.2018 19:00:00 5,4 1,7 26 14 46 25 W 1009,7 16 0 0,0
19.01.2018 18:00:00 5,9 1,0 34 18 50 27 W 1009,9 21 0 0,0
19.01.2018 17:00:00 5,9 1,8 29 16 48 26 W 1010,0 14 0 0,0
19.01.2018 16:00:00 5,9 1,6 28 15 - - W 1009,7 12 0 0,0
19.01.2018 15:00:00 5,1 1,9 26 14 55 30 W 1010,0 18 18 0,0
19.01.2018 14:00:00 7,1 1,8 31 17 55 30 W 1009,7 19 60 0,0
19.01.2018 13:00:00 5,8 2,3 26 14 55 30 WNW 1009,8 16 54 0,2
19.01.2018 12:00:00 6,8 2,0 28 15 48 26 W 1010,2 29 54 0,2
19.01.2018 11:00:00 6,6 2,1 28 15 - - W 1010,6 13 36 0,0
19.01.2018 10:00:00 5,7 0,6 26 14 - - WNW 1010,3 10 42 0,0
19.01.2018 09:00:00 4,6 0,9 18 10 - - WNW 1009,8 10 0 0,0
19.01.2018 08:00:00 4,9 1,0 26 14 - - WNW 1009,5 20 0 0,0
19.01.2018 07:00:00 4,8 0,5 24 13 - - WNW 1009,3 29 0 0,0
19.01.2018 06:00:00 4,6 1,1 24 13 - - WNW 1009,0 20 0 0,0
19.01.2018 05:00:00 4,6 1,2 21 11 - - WNW 1008,9 20 0 0,0
19.01.2018 04:00:00 4,7 1,2 21 11 - - WNW 1008,8 18 0 0,0
19.01.2018 03:00:00 4,7 1,1 24 13 - - WNW 1008,4 21 0 0,0
19.01.2018 02:00:00 4,8 1,2 21 11 - - WNW 1008,2 23 0 0,0
19.01.2018 01:00:00 4,8 1,2 21 11 - - WNW 1008,3 23 0 0,0
19.01.2018 00:00:00 5,1 1,0 22 12 - - WNW 1007,8 25 - 0,0
18.01.2018 23:00:00 4,9 0,8 22 12 - - W 1007,8 21 0 0,0
18.01.2018 22:00:00 5,5 0,9 28 15 - - WNW 1007,7 22 0 0,0
18.01.2018 21:00:00 5,4 1,0 26 14 - - WNW 1007,5 20 0 0,0
18.01.2018 20:00:00 5,6 1,6 24 13 - - WNW 1007,2 19 0 0,0
18.01.2018 19:00:00 5,8 1,5 26 14 - - WNW 1006,8 25 0 0,0
18.01.2018 18:00:00 5,9 1,2 29 16 55 30 WNW 1006,4 28 0 0,0
18.01.2018 17:00:00 6,1 1,7 31 17 48 26 WNW 1005,4 25 0 0,0
18.01.2018 16:00:00 6,3 1,0 31 17 48 26 W 1004,5 10 6 0,0
18.01.2018 15:00:00 7,4 2,3 26 14 52 28 W 1003,8 10 42 0,0
18.01.2018 14:00:00 7,7 4,0 34 18 50 27 W 1003,6 10 36 0,0
18.01.2018 13:00:00 7,8 4,5 29 16 - - W 1003,5 10 6 0,0
18.01.2018 12:00:00 7,6 4,9 24 13 50 27 W 1003,5 10 12 0,2
18.01.2018 11:00:00 7,9 4,4 21 11 - - W 1003,5 10 12 0,0

tt = temperatuur
td = dauwpunt
ff = windsnelheid
fx = windstoten
dd = windrichting
ppp = luchtdruk
vv = zicht
sd = Zonneschijnduur
rr = neerslag

Weerstations in de omgeving